This is the latest recevied weather packets stored in our database for station/object AF9W-5. If no packets are shown the sender has not sent any weather packets the latest 10 day(s).
| Time | Temp. | Humidity | Pressure | Rain* | Wind** | Luminosity | Snow |
|---|---|---|---|---|---|---|---|
| 1777618288 | 18.33° C | 45% | 1010.6 hPa | 0 mm | - | 0 W/m² | - |
| 1777617985 | 18.33° C | 45% | 1010.7 hPa | 0 mm | - | 0 W/m² | - |
| 1777617681 | 18.33° C | 46% | 1010.6 hPa | 0 mm | - | 0 W/m² | - |
| 1777617376 | 18.33° C | 45% | 1010.7 hPa | 0 mm | - | 0 W/m² | - |
| 1777617075 | 18.33° C | 45% | 1010.6 hPa | 0 mm | - | 0 W/m² | - |
| 1777616775 | 18.33° C | 46% | 1010.7 hPa | 0 mm | - | 0 W/m² | - |
| 1777616470 | 18.89° C | 47% | 1010.8 hPa | 0 mm | - | 0 W/m² | - |
| 1777616166 | 18.89° C | 47% | 1010.8 hPa | 0 mm | - | 0 W/m² | - |
| 1777615864 | 18.89° C | 46% | 1010.6 hPa | 0 mm | - | 0 W/m² | - |
| 1777615560 | 18.89° C | 47% | 1010.6 hPa | 0 mm | - | 0 W/m² | - |
| 1777615256 | 18.33° C | 47% | 1010.6 hPa | 0 mm | - | 0 W/m² | - |
| 1777614951 | 18.33° C | 47% | 1010.6 hPa | 0 mm | - | 0 W/m² | - |
| 1777614647 | 18.33° C | 47% | 1010.7 hPa | 0 mm | - | 0 W/m² | - |
| 1777614343 | 18.89° C | 47% | 1010.7 hPa | 0 mm | - | 0 W/m² | - |
| 1777614038 | 18.33° C | 47% | 1010.7 hPa | 0 mm | - | 0 W/m² | - |
| 1777613733 | 18.89° C | 47% | 1010.8 hPa | 0 mm | - | 0 W/m² | - |
| 1777613432 | 18.89° C | 46% | 1010.7 hPa | 0 mm | - | 0 W/m² | - |
| 1777613127 | 18.89° C | 45% | 1010.4 hPa | 0 mm | - | 0 W/m² | - |
| 1777612824 | 18.89° C | 46% | 1010.4 hPa | 0 mm | - | 0 W/m² | - |
| 1777612520 | 19.44° C | 48% | 1010.1 hPa | 0 mm | - | 0 W/m² | - |
| 1777612216 | 19.44° C | 48% | 1009.8 hPa | 0 mm | - | 0 W/m² | - |
| 1777611911 | 19.44° C | 48% | 1009.9 hPa | 0 mm | - | 0 W/m² | - |
| 1777611607 | 19.44° C | 46% | 1009.8 hPa | 0 mm | - | 0 W/m² | - |
| 1777611303 | 19.44° C | 45% | 1009.6 hPa | 0 mm | - | 0 W/m² | - |
| 1777611001 | 20° C | 42% | 1009.5 hPa | 0 mm | - | 0 W/m² | - |
* Rain latest hour (hover to see other rain measurements)
** Current wind speed in m/s (hover to see current wind gust speed)